Flag for U.S.A. Weather past 2 weeks in Aspen, Colorado, U.S.A.

Now
58 °F

Scattered clouds.


Feels Like: 58 °F
Forecast: 52 / 71 °F
Wind: 5 mph from North

Location: Aspen-Pitkin County Airport

Current Time: Aug 1, 2014 at 10:24:56 AM

Latest Report: Aug 1, 2014 at 9:53 AM


Visibility: 10 mi

Pressure: 30.07 "Hg

Humidity: 81%

Dew point: 52 °F

Location of AspenLocation

Historic Weather in Aspen — Graph

°F

Aspen temperature yesterday

Maximum temperature yesterday: 73 °F (at 3:53 PM)
Minimum temperature yesterday: 50 °F (at 3:53 AM)
Average temperature yesterday: 61 °F

Past Weeks' High & Low Weather Summary

 TemperatureHumidityPressure
High88 °F (Jul 22, 5:53 PM)97% (Jul 30, 3:53 AM)30.45 "Hg (Jul 30, 3:53 AM)
Low47 °F (Jul 18, 5:53 AM)8% (Jul 22, 5:53 PM)29.81 "Hg (Jul 17, 5:53 PM)
Average64 °F55%30.01 "Hg
* Reported Jul 17 8:53 AM — Aug 1 8:53 AM, Aspen, Weather by CustomWeather, © 2014

Note: Actual official high and low records may vary slightly from our data, if they occured in-between our weather recording intervals... More about our weather records

Advertising

Aspen weather history for previous 24 hours

 ConditionsComfort  
Time TempWeatherWind HumidityBarometerVisibility
8:53 AM
Aug 1
55 °FMostly cloudy.5 mph90%30.08 "Hg10 mi
7:53 AM54 °FLight rain. Mostly cloudy.3 mph83%30.08 "Hg10 mi
6:53 AM54 °FLight rain. Overcast.12 mph86%30.05 "Hg10 mi
5:53 AM52 °FLight rain. Mostly cloudy.6 mph93%30.05 "Hg10 mi
4:53 AM52 °FMostly cloudy.5 mph86%30.01 "Hg10 mi
3:53 AM51 °FClear.3 mph86%29.98 "Hg10 mi
2:53 AM52 °FPassing clouds.5 mph89%30.01 "Hg10 mi
1:53 AM54 °FPassing clouds.6 mph83%30.02 "Hg10 mi
12:53 AM53 °FClear.5 mph89%30.00 "Hg10 mi
11:53 PM
Jul 31
58 °FMostly cloudy.5 mph78%30.00 "Hg10 mi
10:53 PM59 °FMostly cloudy.3 mph75%30.00 "Hg10 mi
9:53 PM60 °FOvercast.7 mph69%30.01 "Hg10 mi
8:53 PM60 °FScattered clouds.7 mph72%30.01 "Hg10 mi
7:53 PM62 °FSunny.7 mph65%30.00 "Hg10 mi
6:53 PM64 °FThundershowers. Broken clouds.7 mph61%30.00 "Hg10 mi
5:53 PM69 °FScattered clouds.12 mph45%29.94 "Hg10 mi
4:53 PM73 °FBroken clouds.5 mph38%29.93 "Hg10 mi
3:53 PM73 °FThundershowers. Scattered clouds.6 mph38%29.95 "Hg10 mi
2:53 PM68 °FThundershowers. Partly sunny.5 mph53%30.00 "Hg10 mi
1:53 PM65 °FLight rain. Cloudy.9 mph68%30.01 "Hg10 mi
12:53 PM71 °FScattered clouds.10 mph47%29.97 "Hg10 mi
11:53 AM69 °FPassing clouds.5 mph55%29.99 "Hg10 mi
10:53 AM65 °FPartly sunny.7 mph66%30.02 "Hg10 mi
Weather by CustomWeather, © 2014

See weather overviewHow to use our weather pages